Wind_Speed
15 14 14 14 13 12 12 11 11 10 10 9 9 9 8 7 7 6 6 6 5 5 5 5 4 4 4 4 3 3 3 3 3 3 3 3 3 3 3 3 4 4 5
16 16 16 15 15 14 13 12 12 11 10 10 10 9 9 8 7 7 6 6 5 5 5 5 4 4 4 4 3 3 3 3 2 3 2 2 2 2 3 3 3 3 4
18 17 17 17 16 16 15 14 13 12 12 11 11 10 10 9 8 8 7 6 6 5 4 4 5 5 5 4 4 3 3 2 2 2 2 2 2 2 2 2 2 2 3
20 19 19 18 18 17 16 15 14 13 13 12 12 12 11 10 9 9 8 7 6 6 5 5 5 5 5 5 4 4 3 2 2 1 1 1 1 1 1 1 1 1 2
21 21 20 20 19 19 18 17 16 15 14 14 13 13 12 12 10 10 9 8 7 7 6 5 5 5 5 5 5 4 4 3 3 2 2 2 1 1 1 1 1 1 2
23 22 22 21 21 20 19 19 18 17 16 15 15 14 13 13 12 11 10 9 9 8 7 6 6 6 6 5 5 5 5 5 4 4 3 3 3 3 2 2 3 3 3
24 24 24 23 22 22 21 20 19 19 18 17 16 16 15 14 13 12 11 10 10 9 9 8 7 7 7 7 6 6 6 6 5 5 5 5 4 4 4 4 4 4 4
26 25 25 24 24 23 23 22 21 20 20 19 18 17 16 15 14 13 12 12 11 11 10 9 8 8 8 7 7 7 7 7 7 6 6 6 5 5 5 5 4 4 4
27 26 25 25 25 24 24 24 23 22 21 21 20 19 17 16 15 14 13 12 12 11 11 10 10 9 8 8 8 7 7 7 7 7 7 7 6 6 6 6 6 6 6
29 28 27 26 26 25 25 25 24 24 23 22 21 20 19 18 17 15 14 13 13 12 12 11 10 10 9 9 8 8 8 8 8 8 8 8 8 8 8 8 8 7 7
30 30 29 28 28 27 27 26 26 25 24 24 23 22 21 20 19 18 16 15 14 14 13 13 12 11 10 10 10 9 9 9 9 9 9 9 9 9 9 9 9 9 9
32 31 30 30 29 29 28 28 27 27 26 25 25 24 23 22 21 20 19 18 16 16 15 14 13 12 11 11 11 11 10 10 10 10 10 10 10 10 10 10 11 10 10
35 34 33 32 31 30 30 29 29 28 27 27 26 25 24 24 23 22 20 20 18 17 17 15 14 14 13 12 12 12 12 12 12 11 11 11 11 12 12 12 12 12 12
38 37 36 34 33 32 32 31 30 29 29 28 27 27 26 25 24 23 22 21 20 19 18 17 16 15 14 14 13 14 14 13 13 13 13 13 13 13 13 13 14 14 14
40 39 39 37 35 34 33 33 32 31 31 30 29 28 28 27 26 25 24 23 22 21 20 19 18 17 16 15 15 15 15 14 14 14 15 15 15 15 15 15 15 16 15
42 41 41 39 38 37 36 35 33 32 32 31 30 30 29 29 28 26 26 25 24 23 22 21 20 19 18 18 17 17 17 16 16 16 16 16 17 17 17 17 17 17 17
44 43 42 41 40 39 38 37 35 34 33 32 32 32 31 30 29 27 27 26 25 25 24 23 23 22 21 20 20 19 19 18 18 18 18 18 18 18 18 19 19 19 19
46 45 45 43 42 41 40 39 37 36 35 34 34 34 33 32 31 30 29 28 27 27 26 25 25 24 23 23 22 21 21 21 20 20 20 20 20 20 20 20 20 21 21
48 47 46 46 45 43 42 41 40 39 37 36 36 35 34 33 32 32 30 30 29 28 28 27 26 25 25 24 24 24 23 23 22 22 22 22 22 22 22 22 22 23 23
48 48 47 47 47 46 45 42 41 40 39 38 37 37 36 35 34 33 32 31 31 30 29 28 28 27 26 26 25 25 25 25 25 25 25 24 24 24 24 24 25 25 25
49 48 47 47 47 47 46 45 44 42 41 40 39 38 38 37 36 35 34 33 32 32 31 30 30 29 28 28 27 27 27 27 27 26 26 26 26 26 26 26 27 27 27
50 49 48 48 48 47 47 47 46 45 43 41 40 39 38 38 38 37 36 35 34 34 33 32 32 31 30 30 30 29 29 29 29 29 29 29 29 29 28 28 29 29 29
50 49 49 49 48 48 47 47 47 46 44 43 41 41 41 40 39 38 38 37 37 36 36 35 34 33 32 32 32 32 32 31 31 31 31 31 31 32 32 31 31 31 31
51 50 50 51 50 50 49 48 48 48 46 44 43 42 41 41 40 40 39 38 39 38 37 36 36 35 35 34 34 34 34 33 33 33 33 33 34 34 34 34 33 33 33
53 52 51 52 51 51 50 50 49 48 48 47 46 43 43 42 42 41 40 39 38 38 38 38 38 37 37 37 36 36 36 35 35 35 34 35 35 36 36 36 36 35 35
53 52 52 53 51 51 50 51 51 50 49 48 47 46 45 43 42 42 41 40 39 39 39 39 39 39 38 38 38 38 38 37 37 37 37 37 37 37 37 37 37 37 37
Wind_Direction
219 216 214 211 208 206 206 206 204 201 199 196 194 192 187 184 178 172 167 166 167 163 160 157 154 153 153 153 151 147 139 128 111 105 98 96 89 86 84 78 70 63 58
223 221 219 216 214 212 210 209 208 208 205 201 199 198 195 192 190 186 182 177 175 175 173 168 168 166 165 165 163 162 153 138 120 106 100 94 88 91 88 80 71 60 53
226 224 222 220 218 216 214 214 214 213 211 208 205 203 201 199 197 196 193 191 187 186 185 182 182 181 181 179 172 170 166 163 150 124 112 106 95 95 101 89 66 48 42
228 227 225 222 221 220 218 217 217 218 216 214 211 208 206 203 202 201 200 200 198 199 200 197 193 190 194 196 187 185 183 186 191 180 166 146 125 115 129 113 67 31 19
229 229 228 226 224 223 222 220 219 219 219 217 215 211 210 209 208 207 208 209 208 207 207 204 203 202 202 204 203 204 204 209 215 217 221 222 227 237 235 231 270 318 339
229 229 229 228 227 226 223 222 220 220 220 219 217 215 214 214 215 213 213 214 213 211 210 210 210 211 211 214 217 219 219 225 227 229 235 240 245 248 253 263 268 282 302
229 229 229 229 228 227 226 224 223 222 221 219 218 218 217 217 218 218 217 218 217 215 217 218 218 220 221 223 223 223 224 227 232 238 240 242 247 251 257 269 276 279 290
229 229 229 228 228 227 226 226 224 223 222 220 219 218 218 219 219 220 219 219 220 220 221 222 223 224 227 229 229 230 232 233 237 241 243 246 252 258 262 267 277 279 282
229 228 228 227 227 227 227 226 225 224 223 222 221 220 219 220 221 221 219 219 221 221 223 223 225 227 228 230 230 232 235 238 239 243 248 252 256 259 262 266 273 278 277
230 229 228 228 229 228 228 226 226 226 225 223 223 222 222 222 222 222 222 222 223 224 225 226 228 229 230 231 232 235 240 242 243 247 250 253 257 261 266 270 272 276 279
230 230 229 229 230 229 228 227 227 227 226 225 224 224 223 224 225 225 224 225 227 227 229 230 230 231 232 233 236 239 242 244 246 249 251 254 257 262 266 271 273 277 280
231 230 230 230 230 230 229 228 227 227 228 227 226 225 225 225 226 227 227 228 229 230 230 229 231 234 236 238 241 242 243 246 248 251 254 258 260 262 265 268 272 276 279
230 230 230 230 230 230 230 229 228 228 228 227 227 227 227 226 227 228 228 230 230 231 231 231 233 236 239 241 244 245 246 247 250 253 257 260 262 264 266 268 271 274 278
230 230 230 230 230 230 230 229 228 228 228 228 229 229 229 228 228 229 230 231 231 233 234 234 235 238 241 244 246 247 249 251 253 254 257 261 262 264 267 269 270 274 278
230 230 230 230 230 230 229 228 229 229 229 230 230 230 231 231 231 231 231 231 233 234 236 237 237 239 242 246 248 249 251 253 255 256 259 261 261 263 266 269 271 274 277
230 230 229 230 229 229 229 228 229 229 230 231 232 231 232 232 232 231 231 232 233 235 237 240 240 242 244 247 249 251 252 254 256 259 262 263 263 264 266 269 272 274 276
230 229 229 230 229 228 228 228 228 229 230 231 232 232 232 232 232 231 232 233 235 236 238 240 242 244 247 249 249 250 252 255 257 260 262 264 265 266 267 268 271 273 275
230 229 229 229 229 228 228 228 228 230 231 231 232 233 232 232 232 232 233 234 236 238 239 241 244 246 248 248 249 250 252 255 258 260 263 264 266 267 268 269 271 274 276
230 230 230 229 229 228 228 228 229 230 231 232 233 232 232 232 233 232 233 235 237 239 240 241 243 245 247 248 249 251 253 255 258 261 263 265 267 268 269 271 272 274 276
230 229 229 230 229 228 229 229 229 230 232 233 233 233 234 234 234 233 234 235 237 239 240 242 243 245 246 248 250 252 254 256 258 261 264 265 267 269 270 271 273 274 276
229 229 228 229 229 229 229 229 230 232 233 233 233 234 234 234 234 234 235 237 239 240 241 243 245 246 247 248 250 253 255 257 260 263 264 266 267 269 270 271 272 273 274
228 228 229 229 229 230 230 230 230 232 232 233 234 235 235 236 235 235 237 239 240 242 243 245 246 248 249 250 252 255 257 259 261 263 265 266 268 269 270 272 272 273 274
227 229 229 229 229 229 230 230 230 231 232 233 234 235 236 237 236 237 239 240 241 243 244 245 247 249 250 252 254 257 259 261 262 263 266 267 268 269 270 271 272 273 274
228 229 230 229 229 229 230 230 230 231 232 233 234 236 236 238 239 240 241 242 243 244 245 247 248 250 252 254 256 258 259 261 262 264 265 267 268 269 270 271 272 273 274
229 230 229 228 228 228 229 230 230 231 232 233 234 236 237 239 240 241 242 243 244 245 247 248 249 251 253 254 256 257 259 261 262 264 265 267 268 269 270 270 272 273 274
229 230 229 229 229 229 230 230 230 231 232 234 235 236 237 239 240 242 242 244 245 246 247 249 250 252 254 255 256 257 258 260 262 263 264 266 268 268 269 270 271 272 273
Height
5856 5857 5858 5859 5860 5861 5862 5863 5864 5864 5865 5866 5867 5867 5868 5869 5869 5869 5870 5870 5870 5871 5871 5871 5871 5872 5872 5872 5872 5872 5873 5873 5873 5873 5872 5872 5872 5872 5872 5872 5872 5871 5871
5853 5855 5856 5857 5858 5859 5860 5861 5862 5863 5864 5865 5866 5867 5867 5868 5868 5869 5869 5870 5870 5870 5870 5871 5871 5871 5872 5872 5872 5872 5873 5873 5873 5873 5873 5873 5873 5872 5872 5872 5872 5872 5871
5851 5852 5853 5854 5856 5857 5858 5860 5861 5862 5863 5863 5864 5865 5866 5867 5867 5868 5869 5869 5869 5870 5870 5870 5871 5871 5871 5872 5872 5872 5872 5873 5873 5873 5873 5873 5873 5873 5872 5872 5872 5872 5871
5848 5849 5850 5852 5853 5855 5856 5857 5859 5860 5861 5862 5863 5864 5864 5865 5866 5867 5868 5868 5868 5869 5869 5870 5870 5870 5871 5871 5872 5872 5872 5872 5872 5872 5873 5873 5872 5872 5872 5872 5872 5872 5872
5844 5846 5847 5849 5850 5852 5853 5855 5856 5857 5859 5860 5861 5862 5863 5864 5865 5866 5866 5867 5867 5868 5868 5869 5869 5870 5870 5870 5871 5871 5871 5872 5872 5872 5872 5872 5872 5872 5872 5872 5872 5872 5871
5840 5842 5843 5845 5847 5848 5850 5852 5853 5855 5856 5857 5859 5860 5861 5862 5863 5864 5865 5866 5866 5867 5867 5868 5868 5869 5869 5870 5870 5870 5871 5871 5871 5871 5871 5872 5872 5872 5872 5872 5871 5871 5871
5836 5838 5839 5841 5843 5845 5846 5848 5850 5852 5853 5855 5856 5857 5859 5860 5861 5862 5863 5864 5865 5865 5866 5867 5867 5868 5868 5868 5869 5869 5870 5870 5870 5870 5871 5871 5871 5871 5871 5871 5871 5870 5870
5831 5833 5835 5837 5839 5841 5843 5845 5847 5848 5850 5852 5853 5855 5856 5857 5858 5860 5861 5862 5863 5864 5864 5865 5866 5866 5867 5867 5868 5868 5869 5869 5869 5869 5870 5870 5870 5870 5870 5870 5870 5870 5869
5826 5828 5830 5832 5834 5836 5839 5841 5843 5845 5847 5848 5850 5852 5853 5855 5856 5857 5858 5860 5861 5862 5862 5863 5864 5864 5865 5866 5866 5867 5867 5867 5868 5868 5868 5868 5868 5869 5869 5869 5869 5869 5868
5821 5823 5826 5828 5830 5832 5834 5836 5839 5841 5843 5845 5846 5848 5850 5851 5853 5854 5856 5857 5858 5859 5860 5861 5862 5863 5863 5864 5864 5865 5866 5866 5866 5866 5867 5867 5867 5867 5867 5867 5867 5867 5867
5815 5818 5820 5823 5825 5827 5829 5832 5834 5836 5838 5841 5842 5844 5846 5848 5850 5851 5853 5855 5856 5857 5858 5859 5860 5861 5861 5862 5862 5863 5864 5864 5864 5865 5865 5865 5865 5865 5866 5866 5866 5866 5865
5809 5812 5814 5817 5819 5822 5824 5827 5829 5831 5834 5836 5838 5841 5843 5844 5846 5848 5849 5851 5853 5854 5855 5856 5857 5858 5859 5860 5860 5861 5861 5862 5862 5863 5863 5863 5863 5863 5864 5864 5864 5864 5863
5802 5805 5808 5811 5813 5816 5819 5821 5824 5826 5829 5831 5834 5836 5838 5840 5842 5844 5846 5848 5849 5851 5852 5853 5854 5855 5856 5857 5858 5858 5859 5859 5860 5860 5861 5861 5861 5861 5861 5861 5861 5861 5861
5794 5797 5800 5804 5807 5810 5812 5815 5818 5821 5824 5826 5829 5831 5833 5836 5838 5840 5842 5844 5845 5847 5849 5850 5851 5852 5853 5854 5855 5856 5856 5857 5857 5857 5858 5858 5858 5858 5859 5859 5859 5858 5858
5785 5789 5793 5796 5800 5803 5806 5809 5812 5815 5818 5821 5823 5826 5828 5831 5833 5835 5837 5839 5841 5843 5845 5846 5848 5849 5850 5851 5852 5853 5853 5854 5854 5854 5855 5855 5855 5855 5856 5856 5856 5855 5855
5777 5781 5785 5788 5792 5796 5799 5803 5806 5809 5812 5815 5817 5820 5823 5825 5828 5830 5832 5835 5837 5839 5841 5842 5844 5845 5846 5847 5848 5849 5850 5850 5851 5851 5851 5852 5852 5852 5852 5852 5852 5852 5852
5767 5772 5776 5780 5784 5788 5792 5795 5799 5802 5805 5808 5811 5814 5817 5819 5822 5824 5827 5830 5832 5834 5836 5838 5839 5841 5842 5843 5844 5845 5846 5847 5847 5847 5848 5848 5848 5848 5848 5848 5848 5848 5848
5757 5762 5767 5771 5775 5780 5784 5788 5792 5795 5798 5802 5804 5807 5810 5813 5816 5819 5822 5824 5827 5829 5831 5833 5835 5836 5837 5839 5840 5841 5842 5842 5843 5843 5844 5844 5844 5844 5844 5844 5844 5844 5844
5746 5752 5757 5762 5767 5771 5775 5780 5784 5788 5791 5795 5797 5800 5803 5807 5810 5813 5816 5819 5821 5823 5826 5828 5829 5831 5832 5834 5835 5836 5837 5838 5838 5839 5839 5840 5840 5840 5840 5840 5840 5839 5839
5736 5741 5747 5751 5757 5762 5767 5771 5775 5779 5783 5787 5790 5793 5796 5800 5803 5806 5810 5813 5815 5818 5820 5822 5824 5826 5827 5828 5830 5831 5832 5833 5833 5834 5834 5835 5835 5835 5835 5835 5835 5834 5834
5725 5731 5736 5741 5747 5752 5757 5763 5767 5771 5775 5779 5782 5786 5789 5793 5796 5800 5803 5806 5809 5811 5814 5816 5818 5820 5821 5823 5824 5825 5826 5827 5828 5829 5829 5830 5830 5830 5830 5829 5829 5829 5828
5715 5721 5726 5731 5737 5742 5747 5753 5758 5763 5767 5771 5774 5778 5781 5785 5789 5792 5796 5799 5802 5805 5807 5810 5812 5814 5815 5817 5818 5819 5820 5822 5822 5823 5824 5824 5824 5824 5823 5823 5823 5823 5822
5704 5710 5715 5721 5726 5732 5737 5743 5748 5754 5758 5762 5766 5770 5774 5777 5781 5785 5789 5792 5795 5798 5800 5803 5805 5807 5809 5810 5812 5813 5814 5815 5816 5817 5817 5817 5817 5817 5817 5817 5817 5816 5816
5694 5699 5704 5710 5715 5721 5727 5733 5739 5744 5750 5754 5758 5762 5766 5770 5774 5778 5781 5784 5787 5790 5793 5795 5797 5799 5801 5803 5804 5805 5807 5808 5809 5810 5810 5810 5810 5809 5809 5809 5809 5809 5809
5682 5688 5693 5699 5704 5710 5716 5722 5728 5734 5740 5745 5750 5754 5758 5762 5765 5769 5773 5776 5779 5782 5784 5787 5789 5791 5793 5795 5796 5798 5799 5800 5801 5802 5802 5802 5802 5802 5802 5802 5801 5801 5801
5671 5677 5683 5689 5694 5700 5706 5712 5718 5725 5730 5736 5741 5745 5749 5753 5757 5761 5764 5767 5771 5773 5776 5778 5781 5783 5785 5786 5788 5789 5791 5792 5793 5793 5794 5794 5794 5794 5794 5794 5793 5793 5793